User: anonymous   Login
Location: Peebles
(55.6412°N, 3.1714°W)
Time: 02:59:34
(UTC+01:00)
Language:

deb Meteor - Orbit

View from above orbital plane
View from above orbital plane
View from above satellite
View from above satellite

Ground track
Ground track

The orbit data is extracted from the following two-line orbital elements,

1 09907U 77024C   22181.47790589  .00001834  00000-0  47225-3 0  9997
2 09907  82.9172 356.0335 0008462   9.8746 350.2616 14.49672103314834
Epoch (UTC): 30 June 2022 11:28:11
Eccentricity: 0.0008462
inclination: 82.9172°
perigee height: 721 km
apogee height: 733 km
right ascension of ascending node: 356.0335°
argument of perigee: 9.8746°
revolutions per day: 14.49672103
mean anomaly at epoch: 350.2616°
orbit number at epoch: 31483

The dashed part of the orbit path shows where the satellite is in the earth's shadow,  

DLR